Location: Bakhuizen
(52.8696°N, 5.4575°E)
Time: 04:49:38
(UTC+00:00)

Cosmos 773 Rocket - Pass Details

Date: 29 September 2021
Orbit: 745 x 777 km, 74.1° (Epoch: 26 October)

Event Time Altitude Azimuth Distance (km) Brightness Sun altitude
Rises 19:28:30 0° 320° (NW) 3,252 8.3 -19.9°
Reaches altitude 10° 19:32:19 10° 293° (WNW) 2,325 7.7 -20.4°
Maximum altitude 19:34:26 12° 269° (W) 2,154 7.2 -20.7°
Drops below altitude 10° 19:36:34 10° 245° (WSW) 2,324 7.0 -21.0°
Sets 19:40:23 0° 217° (SW) 3,248 7.4 -21.5°
